Okeechobee 6 N FAWN current weather conditions

sailwx.info

Wind from 076 at 1 knots

Air temperature 25.9° C
Dewpoint 25.4° C

Last reported at 2019-Jul-16 12:00 UTC.
Time now 2019-Jul-16 12:28 UTC

Location: N 27°20' W 080°51'.
View on Google Maps.

See reports from other nearby stations

  
Tides and Currents Weather Stations Pressure Air Temp Water Temp Dewpoint Dewpoint Depression Visibility Wind Speed Wind Dir Waves Ship Positions
date/time (UTC)wind fromknots sea level pressurealtimeterstation pressurevisibilityair tempwater tempwave heightnotes
2019-Jul-16 12:00 076 1 25.9
2019-Jul-16 11:45 086 0 24.7
2019-Jul-16 11:30 043 1 23.7
2019-Jul-16 11:00 052 1 23.0
2019-Jul-16 10:45 029 1 23.0
2019-Jul-16 10:30 019 1 22.9
2019-Jul-16 10:15 040 0 23.0
2019-Jul-16 10:00 356 1 23.2
2019-Jul-16 09:45 220 0 23.3
2019-Jul-16 09:30 075 0 23.3
2019-Jul-16 09:15 078 1 23.4
2019-Jul-16 09:00 030 1 23.5
2019-Jul-16 08:45 026 1 23.5
2019-Jul-16 08:30 019 2 23.5
2019-Jul-16 08:15 016 2 23.5
2019-Jul-16 08:00 032 2 23.4
2019-Jul-16 07:45 014 1 23.2
2019-Jul-16 07:30 037 1 23.3
2019-Jul-16 07:15 068 0 23.3
2019-Jul-16 07:00 070 0 23.3
2019-Jul-16 06:45 037 1 23.4
2019-Jul-16 06:30 007 1 23.4
2019-Jul-16 06:15 014 0 23.5
2019-Jul-16 06:00 100 0 23.6
2019-Jul-16 05:45 002 0 23.6
2019-Jul-16 05:30 003 1 23.9
2019-Jul-16 05:15 329 1 24.0
2019-Jul-16 05:00 239 0 24.2
2019-Jul-16 04:45 065 1 24.4
2019-Jul-16 02:30 090 3 26.3
2019-Jul-16 02:15 091 3 26.5
2019-Jul-16 02:00 088 4 26.7
2019-Jul-16 01:45 083 3 26.8
2019-Jul-16 01:30 079 3 26.8
2019-Jul-16 01:15 074 2 27.1
2019-Jul-16 01:00 077 2 27.3
2019-Jul-16 00:45 088 3 27.7
2019-Jul-16 00:30 092 4 27.9
2019-Jul-16 00:15 090 3 28.3
2019-Jul-16 00:00 088 3 28.7
2019-Jul-15 23:45 094 3 29.7
2019-Jul-15 23:30 096 3 30.4
2019-Jul-15 23:15 102 4 30.9
2019-Jul-15 23:00 100 5 31.0
2019-Jul-15 22:45 096 6 31.6
2019-Jul-15 22:30 095 6 32.0
2019-Jul-15 22:15 097 4 32.2
2019-Jul-15 22:00 090 6 32.0
2019-Jul-15 21:45 091 4 31.7
2019-Jul-15 21:30 094 5 31.8
2019-Jul-15 21:15 095 3 31.4
2019-Jul-15 21:00 111 5 32.0
2019-Jul-15 20:45 095 5 33.0
2019-Jul-15 20:30 084 4 32.5
2019-Jul-15 20:15 125 3 31.6
2019-Jul-15 20:00 139 3 31.7
2019-Jul-15 19:45 140 4 31.8
2019-Jul-15 19:30 122 4 32.1
2019-Jul-15 19:15 099 5 32.5
2019-Jul-15 19:00 106 5 33.7
2019-Jul-15 18:45 109 5 33.9
2019-Jul-15 18:30 096 6 33.7
2019-Jul-15 18:15 103 6 33.1
2019-Jul-15 18:00 089 3 32.3
2019-Jul-15 17:45 089 3 32.7
2019-Jul-15 17:30 099 5 32.5
2019-Jul-15 17:15 104 4 32.2
2019-Jul-15 17:00 093 4 32.5
2019-Jul-15 16:45 127 4 32.5
2019-Jul-15 16:30 122 4 32.4
2019-Jul-15 16:15 113 4 32.6
2019-Jul-15 16:00 106 4 32.4
2019-Jul-15 15:45 107 4 32.0
2019-Jul-15 15:30 116 5 32.0
2019-Jul-15 15:15 112 3 31.7
2019-Jul-15 15:00 130 5 31.3
2019-Jul-15 14:45 103 5 30.9
2019-Jul-15 14:30 102 4 30.6
2019-Jul-15 14:15 104 4 30.4
2019-Jul-15 14:00 125 4 30.1
2019-Jul-15 13:45 132 4 29.7
2019-Jul-15 13:30 107 4 29.6
2019-Jul-15 13:15 108 3 29.0
2019-Jul-15 13:00 099 3 28.5
2019-Jul-15 12:45 096 2 27.8
2019-Jul-15 12:30 092 2 27.1
2019-Jul-15 12:15 076 1 26.4
2019-Jul-15 12:00 094 1 25.8
2019-Jul-15 11:45 036 0 24.3
2019-Jul-15 11:30 049 0 23.5
2019-Jul-15 11:15 049 0 23.0
2019-Jul-15 11:00 026 0 22.7
2019-Jul-15 10:45 018 1 22.9
2019-Jul-15 10:30 027 1 23.0
2019-Jul-15 10:15 027 1 23.0
2019-Jul-15 10:00 021 2 22.9
2019-Jul-15 09:45 028 0 22.7
2019-Jul-15 09:30 055 1 22.8
2019-Jul-15 09:15 093 1 22.8
2019-Jul-15 09:00 025 1 22.9
2019-Jul-15 08:45 038 1 22.8
2019-Jul-15 08:30 052 1 22.8
2019-Jul-15 08:15 084 1 22.8
2019-Jul-15 08:00 090 1 22.8
2019-Jul-15 07:45 101 1 22.8
2019-Jul-15 07:30 043 0 23.0
2019-Jul-15 07:15 091 0 23.1
2019-Jul-15 07:00 117 0 23.2
2019-Jul-15 06:45 046 1 23.3
2019-Jul-15 06:30 069 0 23.3
2019-Jul-15 06:15 071 0 23.4
2019-Jul-15 06:00 043 1 23.5
2019-Jul-15 05:45 027 1 23.6
2019-Jul-15 05:30 058 1 23.7
2019-Jul-15 05:15 079 1 23.8
2019-Jul-15 05:00 092 1 23.8
2019-Jul-15 04:45 079 1 23.9
2019-Jul-15 04:30 083 1 24.1
2019-Jul-15 04:15 079 0 24.2
2019-Jul-15 04:00 110 0 24.2
2019-Jul-15 03:45 112 0 24.4
2019-Jul-15 03:30 124 1 24.5
2019-Jul-15 03:15 081 1 24.6
2019-Jul-15 03:00 080 1 24.8
2019-Jul-15 02:45 094 2 25.0
2019-Jul-15 02:30 076 1 25.2
2019-Jul-15 02:15 078 1 25.5
2019-Jul-15 02:00 089 2 25.8
2019-Jul-15 01:45 086 2 25.7
2019-Jul-15 01:30 086 2 25.6
2019-Jul-15 01:15 096 2 25.8
2019-Jul-15 01:00 096 1 26.3
2019-Jul-15 00:45 090 1 27.2
2019-Jul-15 00:30 094 3 27.9
2019-Jul-15 00:15 091 4 28.6
2019-Jul-15 00:00 087 4 29.2
2019-Jul-14 23:45 087 4 29.7
2019-Jul-14 23:30 087 5 30.3
2019-Jul-14 23:15 087 5 30.8
2019-Jul-14 23:00 084 6 31.2
2019-Jul-14 22:45 083 5 31.6
2019-Jul-14 22:30 090 5 32.0
2019-Jul-14 22:15 088 6 32.3
2019-Jul-14 22:00 089 7 32.5
2019-Jul-14 21:45 085 7 32.8
2019-Jul-14 21:30 082 6 33.1
2019-Jul-14 21:15 076 6 33.4
2019-Jul-14 21:00 079 5 33.5
2019-Jul-14 20:45 081 7 33.5
2019-Jul-14 20:30 083 6 33.7
2019-Jul-14 20:15 088 8 33.8
2019-Jul-14 20:00 088 7 34.0
2019-Jul-14 19:45 083 6 34.2
2019-Jul-14 19:30 076 6 34.1
2019-Jul-14 19:15 092 5 34.1
2019-Jul-14 19:00 110 4 33.2
2019-Jul-14 18:45 102 5 34.1
2019-Jul-14 18:30 108 4 33.9
2019-Jul-14 18:15 097 5 33.9
2019-Jul-14 18:00 111 3 33.8
2019-Jul-14 17:45 121 4 33.5
2019-Jul-14 17:30 099 4 33.4
2019-Jul-14 17:15 147 2 33.1
2019-Jul-14 17:00 195 3 33.0
2019-Jul-14 16:45 159 3 32.7
2019-Jul-14 16:30 209 2 32.1
2019-Jul-14 16:15 126 3 31.8
2019-Jul-14 16:00 158 3 32.1
2019-Jul-14 15:45 117 4 32.0
2019-Jul-14 15:30 115 4 31.7
2019-Jul-14 15:15 114 4 31.4
2019-Jul-14 15:00 130 4 31.4
2019-Jul-14 14:45 120 4 30.8
2019-Jul-14 14:30 149 5 30.8
2019-Jul-14 14:15 137 5 30.5
2019-Jul-14 14:00 134 5 30.1
2019-Jul-14 13:45 114 6 29.8
2019-Jul-14 13:30 126 4 29.5
2019-Jul-14 13:15 119 4 29.1
2019-Jul-14 13:00 128 3 28.4
2019-Jul-14 12:45 125 3 27.7
2019-Jul-14 12:30 125 2 27.0
2019-Jul-14 12:15 108 1 26.3
2019-Jul-14 12:00 097 1 25.8